EHI
0 0 0 0 0 0 0 0 0 0 0 0 0 0 0 0 0 0 0 0 0 0 0 0 0 0 0 0 0 0 0 0 0 0 0 0 0 0 0 0 0 0 0
0 0 0 0 0 0 0 0 0 0 0 0 0 0 0 0 0 0 0 0 0 0 0 0 0 0 0 0 0 0 0 0 0 0 0 0 0 0 0 0 0 0 0
0 0 0 0 0 0 0 0 0 0 0 0 0 0 0 0 0 0 0 0 0 0 0 0 0 0 0 0 0 0 0 0 0 0 0 0 0 0 0 0 0 0 0
0 0 0 0 0 0 0 0 0 0 0 0 0 0 0 0 0 0 0 0 0 0 0 0 0 0 0 0 0 0 0 0 0 0 0 0 0 0 0 0 0 0 0
0 0 0 0 0 0 0 0 0 0 0 0 0 0 0 0 0 0 0 0 0 0 0 0 0 0 0 0 0 0 0 0 0 0 0 0 0 0 0 0 0 0 0
0 0 0 0 0 0 0 0 0 0 0 0 0 0 0 0 0 0 0 0 0 0 0 0 0 0 0 0 0 0 0 0 0 0 0 0 0 0 0 0 0 0 0
0 0 0 0 0 0 0 0 0 0 0 0 0 0 0 0 0 0 0 0 0 0 0 0 0 0 0 0 0 0 0 0 0 0 0 0 0 0 0 0 0 0 0
0 0 0 0 0 0 0 0 0 0 0 0 0 0 0 0 0 0 0 0 0 0 0 0 0 0 0 0 0 0 0 0 0 0 0 0 0 0 0 0 0 0 0
0 0 0 0 0 0 0 0 0 0 0 0 0 0 0 0 0 0 0 0 0 0 0 0 0 0 0 0 0 0 0 0 0 0 0 0 0 0 0 0 0 0 0
0 0 0 0 0 0 0 0 0 0 0 0 0 0 0 0 0 0 0 0 0 0 0 0 0 0 0 0 0 0 0 0 0 0 0 0 0 0 0 0 0 0 0
0 0 0 0 0 0 0 0 0 0 0 0 0 0 0 0 0 0 0 0 0 0 0 0 0 0 0 0 0 0 0 0 0 0 0 0 0 0 0 0 0 0 0
0 0 0 0 0 0 0 0 0 0 0 0 0 0 0 0 0 0 0 0 0 0 0 0 0 0 0 0 0 0 0 0 0 0 0 0 0 0 0 0 0 0 0
0 0 0 0 0 0 0 0 0 0 0 0 0 0 0 0 0 0 0 0 0 0 0 0 0 0 0 0 0 0 0 0 0 0 0 0 0 0 0 0 0 0 0
0 0 0 0 0 0 0 0 0 0 0 0 0 0 0 0 0 0 0 0 0 0 0 0 0 0 0 0 0 0 0 0 0 0 0 0 0 0 0 0 0 0 0
0 0 0 0 0 0 0 0 0 0 0 0 0 0 0 0 0 0 0 0 0 0 0 0 0 0 0 0 0 0 0 0 0 0 0 0 0 0 0 0 0 0 0
0 0 0 0 0 0 0 0 0 0 0 0 0 0 0 0 0 0 0 0 0 0 0 0 0 0 0 0 0 0 0 0 0 0 0 0 0 0 0 0 0 0 0
0 0 0 0 0 0 0 0 0 0 0 0 0 0 0 0 0 0 0 0 0 0 0 0 0 0 0 0 0 0 0 0 0 0 0 0 0 0 0 0 0 0 0
0 0 0 0 0 0 0 0 0 0 0 0 0 0 0 0 0 0 0 0 0 0 0 0 0 0 0 0 0 0 0 0 0 0 0 0 0 0 0 0 0 0 0
0 0 0 0 0 0 0 0 0 0 0 0 0 0 0 0 0 0 0 0 0 0 0 0 0 0 0 0 0 0 0 0 0 0 0 0 0 0 0 0 0 0 0
0 0 0 0 0 0 0 0 0 0 0 0 0 0 0 0 0 0 0 0 0 0 0 0 0 0 0 0 0 0 0 0 0 0 0 0 0 0 0 0 0 0 0
0 0 0 0 0 0 0 0 0 0 0 0 0 0 0 0 0 0 0 0 0 0 0 0 0 0 0 0 0 0 0 0 0 0 0 0 0 0 0 0 0 0 0
0 0 0 0 0 0 0 0 0 0 0 0 0 0 0 0 0 0 0 0 0 0 0 0 0 0 0 0 0 0 0 0 0 0 0 0 0 0 0 0 0 0 0
0 0 0 0 0 0 0 0 0 0 0 0 0 0 0 0 0 0 0 0 0 0 0 0 0 0 0 0 0 0 0 0 0 0 0 0 0 0 0 0 0 0 0
0 0 0 0 0 0 0 0 0 0 0 0 0 0 0 0 0 0 0 0 0 0 0 0 0 0 0 0 0 0 0 0 0 0 0 0 0 0 0 0 0 0 0
0 0 0 0 0 0 0 0 0 0 0 0 0 0 0 0 0 0 0 0 0 0 0 0 0 0 0 0 0 0 0 0 0 0 0 0 0 0 0 0 0 0 0
0 0 0 0 0 0 0 0 0 0 0 0 0 0 0 0 0 0 0 0 0 0 0 0 0 0 0 0 0 0 0 0 0 0 0 0 0 0 0 0 0 0 0
Wind_Speed
6 5 4 2 1 1 2 4 5 6 9 10 11 11 12 12 11 11 11 11 11 9 8 7 6 5 3 3 2 2 2 3 4 3 3 2 3 6 7 6 6 6 8
5 4 3 2 2 3 4 5 7 8 9 10 11 12 12 12 12 13 13 11 11 10 8 7 6 4 4 2 2 2 2 4 4 5 3 3 5 6 6 7 8 8 7
4 4 4 4 4 5 6 7 8 10 10 11 11 12 12 12 13 12 12 11 10 9 7 6 5 4 2 2 2 3 3 3 4 4 4 3 4 4 5 6 8 8 10
5 5 6 6 6 7 8 10 10 11 12 12 12 13 13 13 13 13 12 11 10 8 7 5 3 2 2 2 2 4 3 4 3 4 4 4 4 5 4 5 8 6 8
7 7 8 8 9 10 11 12 12 13 13 13 14 13 13 11 11 12 11 10 9 7 6 4 3 2 1 1 2 3 3 3 3 4 5 4 4 4 5 5 9 8 8
8 9 9 11 12 12 12 13 13 13 13 13 13 13 12 10 16 16 12 9 7 6 5 3 2 3 4 5 7 7 6 4 3 4 4 6 7 6 6 7 9 10 8
9 9 10 11 12 12 12 13 13 13 13 13 12 12 12 13 16 15 13 8 6 5 4 3 2 2 4 3 6 9 8 11 11 7 6 7 8 8 8 10 9 9 11
9 10 10 11 12 11 12 12 12 10 11 10 10 10 9 10 13 12 11 7 5 4 3 2 0 2 4 6 4 4 4 5 8 6 6 8 8 8 8 9 9 8 8
9 9 9 10 10 10 11 11 10 10 10 9 8 8 8 7 10 10 9 4 4 3 2 1 2 3 9 11 4 4 5 5 10 14 15 14 18 19 15 7 5 7 10
8 8 8 9 9 10 10 9 8 8 9 8 8 7 6 5 7 8 8 3 3 1 1 2 5 7 10 11 5 4 5 6 6 7 8 11 10 11 14 6 4 6 7
7 8 9 9 9 9 9 8 8 8 9 8 8 7 6 6 7 8 7 2 1 0 1 2 3 10 11 12 10 4 8 9 4 5 6 7 6 5 5 5 5 6 8
8 8 8 8 7 7 8 8 7 7 8 6 6 5 4 5 6 7 7 6 4 0 2 2 4 12 12 13 9 10 13 10 4 5 6 6 7 7 6 7 7 8 10
8 8 8 8 7 7 7 7 6 5 5 4 3 3 3 3 4 8 8 8 8 3 3 8 10 12 11 8 10 12 9 4 4 5 6 7 6 7 8 8 8 8 10
8 7 6 7 7 6 5 5 4 4 4 3 3 2 2 2 2 2 2 3 5 5 3 6 10 10 8 8 8 6 4 4 5 6 7 8 8 7 7 6 7 8 9
7 6 6 6 5 5 5 4 4 2 3 3 2 1 1 1 4 7 4 2 2 3 2 2 3 4 4 4 4 4 4 4 5 5 7 8 8 8 8 6 5 6 7
6 5 4 4 4 4 4 4 8 6 8 7 4 2 1 4 7 8 9 9 10 10 5 2 4 4 5 5 6 6 6 5 5 6 7 7 8 9 9 8 6 7 10
6 4 3 3 3 3 3 3 3 4 7 8 8 7 6 7 8 9 9 9 9 8 3 3 4 4 5 5 5 6 7 6 6 6 7 7 8 8 9 9 9 9 10
5 5 5 3 3 3 3 2 2 2 2 3 5 8 8 8 8 8 9 7 4 4 2 3 4 5 5 5 6 6 7 7 6 6 7 7 7 8 9 9 9 10 11
5 4 3 3 3 3 3 2 2 2 1 2 2 4 7 8 7 7 6 2 3 4 4 4 5 5 5 6 6 6 7 7 8 7 8 8 8 8 9 9 10 15 13
4 7 5 3 3 2 2 2 1 1 1 2 3 3 3 3 3 4 3 3 3 4 5 5 5 6 6 6 6 6 7 7 8 7 8 8 8 8 10 12 11 11 11
4 4 6 4 2 2 1 1 0 1 1 2 3 5 7 2 3 4 4 4 4 4 5 6 6 6 6 6 6 7 8 8 8 8 8 8 9 9 10 10 10 11 11
4 3 3 2 2 1 1 1 0 1 2 3 3 4 8 3 3 4 4 5 4 4 5 6 6 6 6 6 6 7 8 9 8 8 8 9 9 10 10 10 10 10 11
4 4 3 2 1 1 1 1 1 2 2 3 4 4 4 4 4 4 5 5 5 5 5 5 6 7 6 6 7 7 8 9 9 10 10 11 10 10 9 10 11 12 12
4 4 3 2 2 1 1 2 2 2 3 3 4 4 4 4 5 6 6 5 6 6 6 6 7 9 12 10 8 7 8 10 10 10 13 12 11 10 10 10 11 12 12
4 4 3 3 2 2 2 2 2 3 3 4 4 4 4 5 5 6 6 6 7 7 8 8 7 8 11 13 13 11 15 20 19 13 11 10 10 11 11 11 11 12 12
4 4 3 3 3 2 2 3 3 3 4 4 4 4 5 5 6 6 6 6 6 7 8 8 9 10 13 12 13 16 20 22 22 21 13 9 10 10 11 10 12 11 12
Wind_Direction
317 316 311 304 292 183 164 156 145 136 138 140 137 134 132 130 127 123 120 120 116 111 108 110 109 114 115 118 121 139 164 175 232 258 246 263 277 281 290 290 286 282 287
329 341 350 20 72 97 112 121 124 126 127 128 128 126 125 123 121 120 118 116 115 113 110 109 111 114 116 129 150 185 205 206 221 259 261 261 260 269 274 282 292 294 287
6 28 36 48 71 87 100 106 110 113 113 115 117 118 116 114 112 110 110 107 105 104 104 106 110 115 130 158 194 215 227 230 220 242 264 253 263 270 279 280 282 283 287
34 53 59 63 73 83 90 94 99 104 105 106 105 105 105 105 105 105 104 102 99 96 95 99 106 126 175 203 220 231 235 242 240 249 265 267 264 265 268 285 295 282 287
53 61 68 72 77 80 84 88 91 93 96 98 99 97 97 97 102 104 102 102 102 101 96 92 92 97 244 231 241 238 232 240 251 259 270 275 277 282 282 282 296 297 284
63 68 74 79 81 82 85 88 90 91 92 94 94 95 93 96 104 103 104 102 103 104 101 90 81 59 18 353 323 305 287 267 260 256 269 278 284 280 283 288 295 301 300
65 68 74 81 84 85 89 88 89 90 91 90 90 92 95 101 103 104 105 105 106 108 107 90 59 13 1 313 305 306 306 303 299 293 284 280 283 283 283 285 284 284 287
67 70 75 82 85 86 87 87 87 87 87 89 90 92 96 103 106 108 110 105 106 106 104 107 53 305 302 293 269 271 272 279 288 285 263 267 270 272 265 277 284 286 278
69 72 76 83 86 87 87 87 87 89 86 84 86 89 92 96 106 113 114 108 100 91 77 44 317 291 303 314 315 295 290 286 300 301 298 297 301 304 305 302 298 299 296
70 74 76 80 85 86 86 85 82 84 85 83 78 73 76 75 97 103 111 102 94 80 351 311 321 318 314 321 317 302 299 294 292 300 304 303 299 296 301 291 273 282 289
75 76 76 78 81 84 83 82 86 88 85 81 78 66 58 61 68 73 82 101 110 179 291 296 300 322 324 324 326 317 297 305 312 310 303 298 296 288 283 269 252 257 273
80 78 74 72 76 80 83 80 81 88 89 85 83 71 47 36 45 47 39 26 16 0 313 294 299 325 331 330 327 312 314 327 327 307 300 298 300 299 296 287 274 261 254
85 79 76 73 69 72 82 86 80 79 88 88 83 76 51 29 18 26 19 6 356 354 321 328 333 335 336 332 320 321 331 327 303 299 298 297 292 287 292 293 287 276 269
87 81 78 78 73 66 66 75 85 87 89 88 84 75 44 7 337 327 327 334 343 340 339 339 340 338 335 324 323 324 312 293 297 295 298 297 298 295 294 293 298 306 303
89 84 79 78 82 75 68 74 89 98 129 120 122 119 80 331 333 353 354 330 327 315 348 355 340 332 330 323 314 304 299 304 305 297 297 301 302 301 299 298 289 293 288
102 92 89 89 83 80 77 63 66 76 73 73 77 77 354 352 351 353 348 345 343 341 359 341 323 318 313 314 315 315 311 305 302 301 298 295 297 299 300 299 289 290 291
116 114 103 100 99 95 89 86 64 43 50 46 33 21 11 358 354 347 345 346 344 350 355 312 303 301 301 300 300 300 300 299 297 294 291 292 293 293 294 297 298 295 293
113 118 115 109 107 100 92 83 76 58 19 357 2 2 1 356 351 346 349 354 343 341 303 293 294 295 296 296 295 295 296 298 296 294 292 291 290 290 293 294 295 295 297
121 118 114 110 103 97 91 83 71 56 27 346 335 341 350 347 347 347 356 352 307 304 300 294 291 291 291 291 291 290 290 291 291 292 291 289 290 290 290 291 294 298 301
128 136 129 117 106 98 91 84 63 27 354 337 324 314 313 330 330 324 322 296 292 292 294 295 293 290 290 289 288 288 289 288 290 288 288 289 288 287 289 293 296 298 298
128 134 131 116 114 118 113 103 41 323 309 303 296 299 314 312 298 298 298 293 286 290 293 293 291 290 286 283 283 284 285 286 285 285 286 287 288 289 289 290 293 294 296
133 129 129 133 134 149 153 164 251 282 291 295 295 304 320 320 292 289 290 290 286 281 281 285 285 283 281 281 282 284 284 285 285 286 287 288 288 289 291 291 293 296 300
137 138 135 137 145 182 156 211 258 274 281 284 289 294 301 298 294 289 289 291 292 290 285 281 283 284 281 277 274 273 276 279 282 285 288 289 290 292 294 297 300 302 305
145 151 157 164 173 192 215 243 259 270 279 283 285 289 290 292 294 293 291 292 293 291 287 282 279 281 285 288 284 278 274 276 279 278 280 285 294 299 300 300 301 303 306
154 162 171 183 198 214 232 249 261 272 283 288 290 292 294 294 292 291 291 290 291 290 290 289 283 284 287 289 290 288 288 294 297 296 294 295 298 299 301 301 302 305 306
166 174 181 189 204 218 234 252 264 272 276 281 283 285 288 288 288 289 291 292 294 296 295 294 289 290 293 293 291 293 299 304 308 311 310 303 302 301 304 303 304 306 305